Regional Weather Roundup
Issued by NWS Pendleton, OR

Home | Current Version | Previous Version | Text Only | Print | Product List | Glossary On
Versions: 1 2 3 4 5 6 7 8 9 10 11 12 13 14 15 16 17 18 19 20 21 22 23 24 25 26 27 28 29 30 31 32 33 34 35 36 37 38 39 40 41 42 43 44 45 46 47 48 49 50
000
ASUS46 KPDT 172010
RWRPDT
PENDLETON REGIONAL WEATHER ROUNDUP
NATIONAL WEATHER SERVICE PENDLETON OREGON
100 PM PDT THU APR 17 2014

NOTE: FAIR INDICATES FEW OR NO CLOUDS BELOW 12,000 FEET WITH NO
SIGNIFICANT WEATHER AND/OR OBSTRUCTIONS TO VISIBILITY.

# INDICATES UNOFFICIAL STATION AND DATA

WAZ520-172110-
EAST SLOPES OF WASHINGTON CASCADES

CITY            SKY/WX      TMP DP  RH  WIND    PRES   REMARKS
#BUMPING DAM    N/A         43  N/A N/A S2      N/A
#CLE ELUM HS    N/A         52  41  66  S1      29.75F
#CLE ELUM 2NW   N/A         50  39  66  E3      N/A
#CLE ELUM LAKE  N/A         47  42  83  CALM    29.78F
#CLIFFDEL 2NW   N/A         48  41  77  CALM    N/A
#EASTON DOT     N/A         45  44  96  CALM    N/A
#GLENWOOD       N/A         51  48  89  S6      29.80F
#MANASTASH CYN  N/A         48  40  74  CALM    29.77F
#NELSON         N/A         50  43  77  CALM    29.80F
#NELSON 3SW     N/A         45  42  89  CALM    30.01F
#NILE           N/A         53  42  66  NE1     29.10F
#PEOH POINT     N/A         42  40  93  CALM    N/A
#RONALD 2NW     N/A         48  43  83  CALM    29.67F
#SOUTH BLEWITT  N/A         49  38  66  CALM    N/A
#TEANAWAY 4NE   N/A         51  42  71  W1      N/A
#TROUT LAKE HS  N/A         53  47  80  CALM    N/A
#TROUT LAKE 1NE N/A         51  46  83  S7      29.83S
$$

WAZ521-172110-
SIMCOE HIGHLANDS

CITY            SKY/WX      TMP DP  RH  WIND    PRES   REMARKS
#BICKLETON HS   N/A         46  41  83  W3      29.85S
#SATUS PASS DOT N/A         44  43  96  CALM    N/A
#CENTERVILLE 4W N/A         53  48  83  W5      29.59F
#CENTERVILLE 1SWN/A         49  44  83  CALM    29.80F
#GOLDENDALE 1NE N/A         50  47  89  SW3     N/A
#GOLDENDALE 1S  N/A         50  47  89  CALM    28.01F
#GOLDENDALE 5WNWN/A         50  46  86  SW3     29.81F
#GOODNOE HILLS  N/A         52  49  89  W8      29.78F
#LYLE 6NE       N/A         49  48  96  CALM    29.82F
$$

WAZ026-172110-
KITTITAS VALLEY

CITY            SKY/WX      TMP DP  RH  WIND    PRES   REMARKS
ELLENSBURG AP   LGT RAIN    54  42  64  E3      29.79F
#ELLENSBURG CWU N/A         52  42  69  SE2     29.75F
#ELLENSBURG 3NE N/A         50  43  77  S1      29.81F
#ELLENSBURG     N/A         55  46  72  NE3     N/A
#ELLENSBURG 1E  N/A         52  41  66  CALM    N/A
#KITTITAS 4N    N/A         55  45  69  S2      29.97S
#KITTITAS 3S    N/A         51  43  74  CALM    29.78F
#RYEGRASS DOT   N/A         47  39  74  W8      N/A
#THORP 6N       N/A         50  42  74  S5      29.81F
$$

WAZ027-172110-
YAKIMA VALLEY

CITY            SKY/WX      TMP DP  RH  WIND    PRES   REMARKS
YAKIMA AIRPORT  MOCLDY      56  46  69  S8      29.80F
YAKIMA-VAGABOND MOCLDY      54  45  71  S8      29.81F
#COWICHE 1N     N/A         53  43  69  SE2     29.95F
#DONALD 2NE     N/A         56  46  69  NE1     30.13F
#GRANDVIEW      N/A         55  49  80  CALM    29.82F
#MABTON         N/A         56  50  80  CALM    29.81F
#MOXEE 2E       N/A         54  42  64  SE3     29.75F
#NACHES 2SW     N/A         52  44  74  E5      29.82S
#TERRACE HTS    N/A         53  46  77  S2      29.77F
#TOPPENISH      N/A         54  47  77  E5      29.72F
#WAPATO 4NE     N/A         56  46  69  NE1     30.13F
#WEST VALLEY    N/A         53  46  77  E1      29.81F
#WHITE SWAN 5E  N/A         55  49  80  E7      29.80F
#WILEY CITY 3W  N/A         54  44  69  CALM    29.82F
$$

WAZ028-172110-
LOWER COLUMBIA BASIN...WASHINGTON

CITY            SKY/WX      TMP DP  RH  WIND    PRES   REMARKS
HANFORD         LGT RAIN    57  49  75  S3      29.81F
PASCO           LGT RAIN    56  51  83  S5      29.84F
PROSSER AWOS    N/A         57  52  83  SE9     29.84F
RICHLAND AWOS   LGT DRIZZLE 57  50  77  S9      29.83F
#BASIN CITY 5SW N/A         55  51  86  S6      29.82F
#BENTON CITY    N/A         55  49  80  S9      29.72F
#CONNELL 5N     N/A         53  48  83  S5      29.81S
#CONNELL 5NW    N/A         53  49  86  S7      29.78F
#ELTOPIA        N/A         56  52  86  S3      29.80S
#ELTOPIA 6NW    N/A         53  50  89  S7      28.79F
#KENNEWICK 3S   N/A         54  50  86  S3      29.83F
#PASCO-BROADMOORN/A         57  51  80  SW2     29.73F
#PATERSON       N/A         53  50  89  SW7     29.83F
#PROSSER DOT    N/A         56  51  83  S7      N/A
#PROSSER        N/A         55  51  86  S6      29.82F
#SAGEMOOR 2W    N/A         54  50  86  S7      29.67F
#TOUCHET 2S     N/A         55  50  83  CALM    29.82F
#WEST PASCO     N/A         57  51  80  SE2     29.81F
$$

WAZ029-172110-
FOOTHILLS OF THE BLUES...WASHINGTON

CITY            SKY/WX      TMP DP  RH  WIND    PRES   REMARKS
WALLA WALLA AP  LGT RAIN    53  49  86  S6      29.85F FOG
#COLLEGE PLACE  N/A         58  49  72  CALM    29.86F
#DELANEY DOT    N/A         54  47  77  S6      N/A
#LOWDEN 2SE     N/A         54  51  90  CALM    29.82S
#PLEASANT VIEW 1N/A         50  48  93  SE7     29.86F
#PRESCOTT       N/A         53  50  89  CALM    29.83F
#SUDBURY        N/A         56  N/A N/A S3      N/A
#WHITMAN COLLEGEN/A         52  48  86  S1      29.89F
#WAITSBURG 8N   N/A         50  44  80  S12     29.68F
#WALLA WALLA 5E N/A         52  49  89  S14     N/A
#WALLA WALLA U  N/A         54  50  86  CALM    29.84F
#WHITMAN MISSIONN/A         53  51  93  CALM    29.85F
$$

WAZ030-172110-
BLUE MOUNTAINS...WASHINGTON

CITY            SKY/WX      TMP DP  RH  WIND    PRES   REMARKS
$$

ORZ009-041-WAZ024-172110-
COLUMBIA RIVER GORGE

CITY            SKY/WX      TMP DP  RH  WIND    PRES   REMARKS
HOOD RIVER AP   LGT RAIN    54  50  86  CALM    29.85F
THE DALLES AP   CLOUDY      54  49  83  CALM    29.85F
#ARLINGTON AIRPON/A         52  50  93  W6      25.13R
#ARLINGTON HS   N/A         55  50  83  CALM    29.76F
#CELILO DOT     N/A         55  48  77  CALM    N/A
#MARYHILL       N/A         51  50  96  E1      N/A
#MARYHILL 2W    N/A         52  52  100 E2      N/A
#MOSIER 1S      N/A         54  49  83  CALM    29.91S
#MURDOCK        N/A         55  51  86  SW1     29.87F
#RUFUS DOT      N/A         54  50  86  SW12    N/A

$$

ORZ510-172110-
NORTH CENTRAL OREGON

CITY            SKY/WX      TMP DP  RH  WIND    PRES   REMARKS
#CHENOWITH 1W   N/A         49  N/A N/A W5      N/A
#COW CYN RST AREN/A         46  46  100 S2      N/A
#GRASS VALLEY   N/A         47  46  96  S2      N/A
#GRASS VALLEY 1SN/A         49  46  89  SW5     29.85F
#KENT DOT       N/A         48  41  77  SW3     N/A
#MAUPIN SCHOOL  N/A         54  48  80  CALM    29.87F
#SHANIKO 5WSW   N/A         45  38  76  S2      N/A
#SHANIKO 4NW    N/A         45  41  86  SW2     29.84S
#TYGH VALLEY 2NEN/A         53  48  83  S1      29.82F
#WAPANITIA AIRPON/A         52  48  86  SE1     29.83F
#WASCO DOT      N/A         52  47  83  W3      N/A
#WASCO 5NE      N/A         50  47  89  CALM    29.84F
$$

ORZ511-172110-
CENTRAL OREGON

CITY            SKY/WX      TMP DP  RH  WIND    PRES   REMARKS
BEND AIRPORT    LGT RAIN    46  45  96  N3      29.87R
MADRAS AIRPORT  LGT RAIN    48  46  93  CALM    29.87S
REDMOND AIRPORT LGT RAIN    49  43  80  NW7     29.85S
#BEND 6E        N/A         47  42  83  CALM    29.80F
#BEND 1SW       N/A         47  43  86  N1      N/A
#BEND-AWBREY    N/A         48  45  89  CALM    29.82S
#BEND-KIM LN    N/A         48  45  89  CALM    29.83S
#CROOKED RVR RANN/A         51  45  80  NW2     29.81F
#CULVER         N/A         50  44  80  CALM    29.82F
#LAKE BILLY CHINN/A         50  36  58  CALM    29.92F
#POWELL BUTTE   N/A         50  44  80  NW1     29.52R
#PRINEVILLE AIR N/A         47  43  86  W3      29.84R
#PRINEVILLE 3N  N/A         49  44  83  SW6     29.77S
#WARM SPRINGS   N/A         55  48  77  CALM    29.84F


ORZ509-172110-
EAST SLOPES OF OREGON CASCADES

CITY            SKY/WX      TMP DP  RH  WIND    PRES   REMARKS
#BLUE BOX PASS  N/A         41  -9  11  CALM    N/A
#CAMP SHERMAN   N/A         50  41  71  CALM    29.84R
#LA PINE DOT    N/A         45  39  79  W7      N/A
#LA PINE 4NW    N/A         45  39  79  W1      29.88R
#LAVA BUTTE DOT N/A         44  42  93  CALM    N/A
#SISTERS AIRPOR N/A         49  43  80  N13     29.87F WCI 44
#SISTERS ODOT   N/A         49  N/A N/A CALM    N/A
#SISTERS 3N     N/A         50  36  58  W3      29.92S
#SUNRIVER       N/A         47  42  83  SW3     29.70R
#SUNRIVER AP    N/A         45  41  86  W1      29.78S
#SUTTLE LK DOT  N/A         39  39  100 W12     N/A    WCI 32
#TUMALO 3W      N/A         46  41  83  N1      29.71S
#WANOGA BUTTE D N/A         37  33  85  W8      N/A

$$

ORZ044-172110-
LOWER COLUMBIA BASIN...OREGON

CITY            SKY/WX      TMP DP  RH  WIND    PRES   REMARKS
HERMISTON       LGT RAIN    55  50  83  SW8     29.84F
#BOARDMAN SCHOOLN/A         55  50  83  W2      29.84F
#BOARDMAN 3W    N/A         57  53  86  SW10    29.56S
#BOARDMAN 8SW   N/A         54  50  86  SW8     29.83F
#IONE SCHOOL    N/A         52  41  66  CALM    29.84F
#IRRIGON 4NW    N/A         56  52  86  S12     N/A
#UMATILLA       N/A         56  47  72  SW7     29.82F
$$

ORZ507-172110-
NORTHERN FOOTHILLS OF THE BLUES

CITY            SKY/WX      TMP DP  RH  WIND    PRES   REMARKS
PENDLETON AIRPT LGT RAIN    52  48  86  W10     29.84F
#ADAMS 3WNW     N/A         51  48  89  SW5     29.84F
#ATHENA         N/A         50  47  89  CALM    29.85F
#HELIX SCHOOL   N/A         51  48  89  SW7     29.83F
#HELIX 3N       N/A         50  46  86  SW12    29.82F
#M-F FERNDALE   N/A         53  50  89  CALM    29.84F
#M-F GROVE ELEM N/A         53  46  77  S1      29.84F
#M-FREEWATER 5SEN/A         52  48  86  CALM    29.85F
#PDT AQUATIC CTRN/A         54  47  77  SW1     29.87S
#PENDLETON DNTN N/A         53  45  74  CALM    29.80F
#PDT SUNRIDGE   N/A         52  48  86  CALM    29.86F
#PILOT ROCK     N/A         51  45  80  N1      29.86F
#TUTUILLA       N/A         50  46  86  W1      29.78S
#UMAPINE 2E     N/A         54  49  83  CALM    29.78S
#WESTON SCHOOL  N/A         50  45  83  W2      29.90F

$$

ORZ508-172110-
SOUTHERN FOOTHILLS OF THE BLUES

CITY            SKY/WX      TMP DP  RH  WIND    PRES   REMARKS
LEXINGTON       LGT RAIN    52  46  80  CALM    29.86F
#AJAX           N/A         50  46  86  N3      29.86F
#CONDON SCHOOL  N/A         47  44  89  CALM    29.82F
#CONDON 5W      N/A         46  42  86  NW1     29.81F
#FOSSIL SCHOOL  N/A         48  44  86  CALM    29.83F
#HEPPNER 4NE    N/A         47  44  89  S1      29.83F
#LEXINGTON 2SE  N/A         53  46  77  W1      29.80F
#MIKKALO        N/A         52  46  80  W1      29.84F
#OLEX 4N        N/A         52  48  86  W1      29.85F
#RUGGS 5NE      N/A         47  45  93  W2      30.07S
#RUGGS 2SW      N/A         47  43  86  CALM    29.89S

$$

ORZ502-503-172110-
BLUE MOUNTAINS

CITY            SKY/WX      TMP DP  RH  WIND    PRES   REMARKS
MEACHAM         LGT RAIN    47  43  86  CALM    29.83S
#BATTLE MTN DOT N/A         43  43  100 N2      N/A
#HARDMAN 10S    N/A         42  40  93  N3      29.90F
#HEPPNER 15SE   N/A         41  40  96  W5      29.74S
#LADD CYN SMT   N/A         56  27  33  E21     N/A
#LADD CREEK ODOTN/A         59  37  44  S6      N/A
#LONG CREEK HS  N/A         49  44  83  N7      29.75F
#N POWDER DOT   N/A         59  36  42  SE17G25 N/A
#TOLLGATE       N/A         42  38  86  SW1     29.81F
#TOLLGATE 9W    N/A         46  44  93  W3      N/A
#TROY SCHOOL    N/A         62  43  50  E1      29.63F
#UKIAH          N/A         47  43  86  N7      29.86F
#WESTON 4E      N/A         45  43  93  W3      29.78F
$$

ORZ505-172110-
JOHN DAY BASIN

CITY            SKY/WX      TMP DP  RH  WIND    PRES   REMARKS
JOHN DAY        MOCLDY      57  36  45  CALM    29.79F
#JOHN DAY KJDY  N/A         64  32  30  W1      29.74F
#DAYVILLE SCHOOLN/A         55  39  55  NW3     29.80S
#MONUMENT HS    N/A         55  40  57  NW5     29.79S
#MT. VERNON 5SE N/A         55  38  53  N1      29.75F
$$

ORZ506-172110-
OCHOCO AND JOHN DAY HIGHLANDS

CITY            SKY/WX      TMP DP  RH  WIND    PRES   REMARKS
#ANTONE         N/A         32  N/A N/A CALM    N/A
#BUCK CREEK DOT N/A         63  44  50  SW9     N/A
#HORSE RIDGE DO N/A         46  42  86  NW12    N/A    WCI 40
#KEYES SMT DOT  N/A         45  41  86  S12     N/A    WCI 39
#PAULINA SCHOOL N/A         56  42  59  NW7     29.82F
#PRAIRIE CITY   N/A         58  39  49  E1      29.72F
#SENECA 9NW     N/A         56  35  45  SE1     29.78F
$$

ORZ049-172110-
GRANDE RONDE VALLEY

CITY            SKY/WX      TMP DP  RH  WIND    PRES   REMARKS
LA GRANDE       MOCLDY      61  32  33  S16     29.78F
#COVE           N/A         59  37  44  S2      29.73F
#COVE SCHOOL    N/A         60  35  39  S3      29.78F
#COVE 6NW       N/A         59  35  40  SE6     29.82F
#ELGIN 3N       N/A         57  32  38  SW7     29.53F
#ELGIN 1E       N/A         58  35  42  CALM    N/A
#IMBLER SCHOOL  N/A         58  36  44  CALM    29.76F
#ISLAND CITY 4N N/A         58  39  49  S12     29.74F
#LADD CYN DOT   N/A         59  34  39  S13     N/A
#LA GRANDE ELEM N/A         60  35  39  S9      29.79F
#UNION 1S       N/A         59  34  39  S6      29.69F
$$

ORZ050-172110-
WALLOWA COUNTY

CITY            SKY/WX      TMP DP  RH  WIND    PRES   REMARKS
#ENTERPRISE HS  N/A         60  37  42  E1      29.81F
#IMNAHA SCHOOL  N/A         66  27  23  S13G24  29.67F
#JOSEPH 3N      N/A         58  37  45  CALM    29.84F
#LOSTINE        N/A         56  39  53  NW3     29.60F
#MT HOWARD 8000 N/A         36  27  69  S15G33  29.84F WCI 27
#PROMISE 1S     N/A         52  35  52  SE6     29.88F
#SHEEP RDG 7000 N/A         40  28  62  CALM    29.86F
#WALLOWA SCHOOL N/A         57  35  43  CALM    30.71F



$$



USA.gov is the U.S. government's official web portal to all federal, state and local government web resources and services.